CZ-6A DEB, 64629

Orbit data source: Space-Track

CZ-6A DEB, 64629 is space debris in LEO originally from a launch on Tue, 06 Aug 2024 UTC launched from the Taiyaun Space Center, China (TSC). Debris objects in space refer to the collection of defunct objects orbiting the Earth. Examples of debris include non-operational satellites, rocket bodies, and fragments generated from explosions, collisions, or faulty payload assembly.

Loading next visibility...
Identifier
64629, 2024-140ADT
Orbit
LEO
Country
Flag of CNCN / PRC
Related business
Manufacturer
SAST
Mission
Spacecraft
Bus & Motor
Unknown
Mass
Unknown
Launch date (UTC)
2024-08-06 (2 years ago)
Launch vehicle
Unknown
Launch site
Taiyaun Space Center, China (TSC)
Object type
Payload
Rocket body
Debris
Shape & HBR
Unknown shape, 0.1 m
Radar Cross Section
Small (<0.1 m²)

Expand to show TLE details & history
Last TLE update: 2 days ago

TLE from 2 days ago
0 CZ-6A DEB
1 64629U 24140ADT 26169.46425325  .00001014  00000-0  35294-3 0  9995
2 64629  88.6787 246.4417 0017646 260.6960  99.2243 14.34616872 93614
Epoch: 2026-06-18T11:08Z
TLE epoch observation values (Epoch: 2026-06-18T11:08:31.480Z)
Latitude
-0.00001°
Longitude
172.60333°
Altitude
781.458 km
Speed
7.462 km/s
True Right ascension
16h 25m 46s
True Declination
0° 00' 00"
Sunlit
Object was in full shadow at epoch
Visualization orbit readout
Latitude
Unknown
Longitude
Unknown
Altitude
Unknown
Speed
Unknown
Apparent Right ascension
Unknown
Apparent Declination
Unknown
Sunlit
N/A
Visualization observer readout
Local Sidereal Time
07:19:32
Azimuth
Unknown
Elevation
Unknown
Doppler factor
Unknown
Orbital elements
Apogee altitude
785.892 km
Perigee altitude
760.653 km
Semi-major axis
7,151.409 km
Eccentricity
0.00176
Inclination
88.6787°
RAAN
246.4417°
Arg. of periapsis
260.696°
True anomaly
99.42382°
Mean anomaly
99.2243°
Eccentric anomaly
99.32407°
Mean motion
3.58885 °/min
Orbital period
100.31 mins
BSTAR
0.00035294
Loading maneuver chart data...
Computing Atmospheric mass density...
Loading historical data...
Loading historical data...
Loading historical data...
Loading historical data...
Loading historical data...
Loading historical data...
Loading historical data...

Documentation

Showing up to 5 results
|